Weather observations for the past three days for
Morrisville-Stowe State Airport
Imperial (Metric)
Date Time (edt) Wind (mph) Vis. (mi.) Weather Sky Cond. Temperature (ºF) Relative Humidity Wind Chill (°F) Heat Index (°F) Pressure Precipitation (in)
Air Dwpt 6 hour altimeter (in) sea level (mb) 1 hr 3 hr 6 hr
Max. Min.
04 03:54 Calm 10.00 Overcast SCT002 BKN028 OVC060 62.1 61 96% 29.85 1010.7
04 02:54 NW 3 7.00 Overcast BKN002 BKN029 OVC039 63 63 100% 29.85 1010.7
04 01:54 Calm 4.00 Fog/Mist BKN002 OVC032 63 63 66.9 63 100% 29.87 1011.2 0.02
04 00:54 Calm 7.00 Overcast FEW001 BKN049 OVC100 64 64 100% 29.87 1011.3
03 23:54 Calm 8.00 Overcast FEW002 SCT047 OVC090 64 64 100% 29.88 1011.7 0.02
03 22:54 Calm 10.00 Mostly Cloudy FEW047 SCT060 BKN085 64 64 100% 29.88 1011.8
03 21:54 S 5 10.00 Overcast FEW050 BKN075 OVC090 66 64.9 96% 29.89 1012.1
03 20:54 S 5 10.00 Overcast FEW042 OVC050 66 66 100% 29.89 1012.1
03 19:54 Calm 10.00 Overcast FEW047 SCT055 OVC070 66.9 66 81 66 97% 29.86 1011.1 0.01
03 18:54 S 3 10.00 A Few Clouds FEW047 70 66 87% 29.85 1010.7
03 17:54 SW 3 10.00 Overcast FEW050 OVC085 72 69.1 91% 29.86 1011.1 0.01
03 16:54 NE 8 10.00 Mostly Cloudy FEW047 BKN090 75 64.9 71% 77 29.85 1010.8
03 15:54 SW 5 10.00 Partly Cloudy SCT041 79 64 60% 81 29.85 1010.4
03 13:54 SW 10 G 17 10.00 Fair CLR 78.1 64.9 78.1 62.1 64% 80 29.87 1011.3
03 12:54 S 9 10.00 Partly Cloudy SCT050 75.9 66 72% 77 29.88 1011.5
03 11:54 SW 9 10.00 Mostly Cloudy BKN070 75 64.9 71% 77 29.89 1012.0
03 10:54 S 7 10.00 Mostly Cloudy FEW015 SCT047 BKN080 70 64.9 84% 29.92 1013.1
03 09:54 SE 6 10.00 Overcast SCT011 BKN022 OVC055 64.9 63 93% 29.93 1013.3
03 07:54 SE 7 10.00 Overcast SCT022 BKN032 OVC045 62.1 61 62.1 60.1 96% 29.94 1013.7 0.1
03 06:54 Calm 10.00 Overcast OVC042 61 60.1 97% 29.93 1013.6
03 05:54 S 6 10.00 Overcast SCT021 OVC032 60.1 60.1 100% 29.92 1013.3
03 04:54 SE 7 10.00 Overcast BKN024 OVC047 60.1 59 96% 29.92 1013.3 0.01 0.1
03 03:54 S 5 10.00 Overcast BKN024 OVC028 60.1 60.1 100% 29.94 1013.8 0.02
03 02:54 S 7 5.00 Rain Fog/Mist OVC026 60.1 59 96% 29.95 1014.1 0.07
03 01:54 S 3 5.00 Rain Fog/Mist OVC029 61 60.1 66.9 61 97% 29.97 1014.9 0.12 0.37
03 00:54 S 6 6.00 Rain Fog/Mist OVC026 61 61 100% 29.98 1015.2 0.22
02 23:54 S 6 10.00 Light Rain OVC028 63 60.1 90% 29.99 1015.3 0.02
02 22:54 SE 12 G 22 10.00 Light Rain OVC026 64 60.1 87% 30.01 1016.0 0.01 0.01
02 21:54 S 9 G 23 10.00 Overcast OVC020 66 59 78% 30.02 1016.4
02 20:54 S 10 G 16 10.00 Overcast OVC026 66 59 78% 30.02 1016.6
02 19:54 S 13 G 24 10.00 Overcast OVC026 66 59 70 66 78% 30.01 1016.3
02 18:54 S 12 G 28 10.00 Overcast OVC028 66.9 57.9 73% 30.04 1017.0
02 17:54 S 10 10.00 Overcast OVC027 66.9 59 76% 30.07 1018.1
02 16:54 S 8 G 18 10.00 Overcast OVC029 66.9 59 76% 30.08 1018.4
02 15:54 S 7 10.00 Overcast OVC030 69.1 59 70% 30.09 1018.7
02 14:54 S 12 G 22 10.00 Partly Cloudy SCT033 70 57.9 66% 30.1 1019.0
02 13:54 S 12 G 18 10.00 Overcast OVC033 70 57.9 72 64 66% 30.11 1019.5
02 12:54 S 8 G 20 10.00 Overcast OVC030 69.1 57.9 68% 30.12 1019.9
02 11:54 S 12 G 20 10.00 Mostly Cloudy BKN031 69.1 57.9 68% 30.13 1020.3
02 10:54 S 7 10.00 Overcast BKN027 OVC032 66.9 57.9 73% 30.15 1021.0
02 09:54 S 7 10.00 Overcast FEW028 OVC034 66 57.9 75% 30.14 1020.7
02 07:54 S 5 10.00 Overcast OVC037 64 57.9 64.9 63 81% 30.14 1020.6
02 06:54 SW 3 10.00 Overcast OVC038 64 57.9 81% 30.14 1020.6
02 05:54 SW 6 10.00 Overcast OVC034 64 57 78% 30.13 1020.1
02 04:54 S 8 10.00 Overcast OVC034 64.9 57 76% 30.12 1019.9
02 03:54 S 5 10.00 Overcast BKN026 OVC043 64.9 59 81% 30.13 1020.0
02 02:54 Vrbl 5 10.00 Overcast FEW027 OVC043 64.9 60.1 84% 30.12 1019.8
02 01:54 S 5 10.00 Overcast OVC044 64.9 60.1 68 64 84% 30.12 1019.6
02 00:54 Vrbl 5 10.00 Overcast OVC045 66 59 78% 30.11 1019.4
01 23:54 Vrbl 6 10.00 Overcast FEW031 OVC055 66 60.1 81% 30.1 1019.0
01 22:54 Calm 10.00 Mostly Cloudy FEW032 SCT055 BKN085 64.9 60.1 84% 30.08 1018.3
01 21:54 SW 7 10.00 Overcast OVC060 66.9 60.1 79% 30.08 1018.5
01 20:54 Vrbl 3 10.00 Overcast BKN060 OVC090 66.9 59 76% 30.07 1018.3
01 19:54 SW 7 10.00 Overcast OVC060 68 60.1 78.1 68 76% 30.06 1018.1
01 18:54 Vrbl 3 10.00 Overcast OVC075 70 60.1 71% 30.05 1017.7
01 17:54 SW 6 10.00 Overcast OVC075 72 60.1 66% 30.04 1017.3
01 16:54 SE 3 10.00 Overcast FEW047 OVC055 73.9 59 60% 30.03 1017.0
01 15:54 S 5 10.00 Mostly Cloudy BKN050 73.9 59 60% 30.02 1016.7
01 14:54 S 3 10.00 Overcast OVC050 75 57 54% 78 30.03 1016.9
01 13:54 Vrbl 3 10.00 Fair CLR 77 55.9 77 55.9 48% 79 30.04 1017.1
01 12:54 SW 3 10.00 A Few Clouds FEW050 73 54 51% 30.05 1017.5
01 11:54 Calm 10.00 Overcast FEW050 OVC070 71.1 55 57% 30.06 1018.1
01 10:54 Calm 10.00 Overcast BKN048 OVC070 66.9 55 66% 30.07 1018.3
01 09:54 Calm 10.00 Partly Cloudy SCT050 SCT070 62.1 55.9 80% 30.06 1018.2
01 08:54 Calm 10.00 Overcast BKN060 OVC070 57 55 93% 30.08 1018.9
01 07:54 Calm 10.00 Overcast OVC060 55.9 54 55.9 50 93% 30.09 1019.2
01 06:54 Calm 10.00 Overcast BKN046 OVC070 54 53.1 97% 30.08 1018.8
01 05:54 Calm 10.00 Overcast OVC045 53.1 53.1 100% 30.08 1018.5
01 04:54 Calm 10.00 Overcast SCT043 OVC065 53.1 53.1 100% 30.08 1018.4
Date Time (edt) Wind (mph) Vis. (mi.) Weather Sky Cond. Air Dwpt Max. Min. Relative Humidity Wind Chill (°F) Heat Index (°F) altimeter (in) sea level (mb) 1 hr 3 hr 6 hr
6 hour
Temperature (ºF) Pressure Precipitation (in)